AirNav   Everest Fuels
 
 1098 users online  

9NC2 Flyers Airpark
Linden, North Carolina, USA

GOING TO LINDEN?


FAA INFORMATION EFFECTIVE 22 APRIL 2021

Location

FAA Identifier: 9NC2
Lat/Long: 35-13-05.5860N 078-47-47.0840W
35-13.093100N 078-47.784733W
35.2182183,-78.7964122
(estimated)
Elevation: 115 ft. / 35 m (estimated)
Variation: 07W (1985)
From city: 4 miles N of LINDEN, NC
Time zone: UTC -4 (UTC -5 during Standard Time)
Zip code: 28356

Airport Operations

Airport use: Private use. Permission required prior to landing
Activation date: 06/1991
Control tower: no
ARTCC: WASHINGTON CENTER
FSS: RALEIGH FLIGHT SERVICE STATION
Attendance: UNATNDD
Wind indicator: yes
Segmented circle: no

Airport Communications

WX AWOS-3 at HRJ (10 nm N): 119.025 (910-814-3946)
WX ASOS at FAY (14 nm S): 121.25 (910-484-1546)

Nearby radio navigation aids

VOR radial/distance  VOR name  Freq  Var
FAYr019/14.5FAYETTEVILLE VOR/DME108.8004W
SDZr093/38.8SANDHILLS VORTAC111.8003W
RDUr190/39.3RALEIGH/DURHAM VORTAC117.2009W

 
NDB name  Hdg/Dist  Freq  Var  ID
FORT BRAGG017/4.839307WFGP ..-. --. .--.
POPE101/7.833807WPOB .--. --- -...
HARNETT213/14.241708WHQT .... --.- -
CLINTON313/25.841209WCTZ -.-. - --..
MACKALL077/35.727806WHFF .... ..-. ..-.
ROBESON028/38.535908WRSY .-. ... -.--

Airport Services

Runway Information

Runway 4/22

Dimensions: 2850 x 65 ft. / 869 x 20 m
Surface: turf
RUNWAY 4  RUNWAY 22
Traffic pattern: leftleft
Obstructions: 55 ft. trees, 150 ft. from runway70 ft. trees, 50 ft. from runway

Airport Ownership and Management from official FAA records

Ownership: Privately-owned
Owner: RONNIE BILL
657 FLYERS DRIVE
LINDEN, NC 28356
Phone (910) 980-0846
Manager: RONNIE BILL
657 FLYERS DRIVE
LINDEN, NC 28356
Phone (910) 980-0846

Airport Operational Statistics

Aircraft based on the field: 5
Single engine airplanes: 3
Ultralights: 2
    

Additional Remarks

FOR CD CTC WASHINGTON ARTCC AT 703-771-3587.

Instrument Procedures

There are no published instrument procedures at 9NC2.

Some nearby airports with instrument procedures:

KFBG - Simmons Army Airfield (9 nm SW)
KHRJ - Harnett Regional Jetport Airport (10 nm N)
KPOB - Pope Army Airfield (11 nm W)
KFAY - Fayetteville Regional Airport/Grannis Field (14 nm S)
5W4 - P K Airpark (23 nm SW)
 
Loc | Ops | Rwys | IFR | FBO | Links
Com | Nav | Svcs | Stats | Notes
Area around 9NC2 (Flyers Airpark)
 
Road maps at: MapQuest Bing Google
 
Aerial photo
WARNING: Photo may not be current or correct
Aerial photo of 9NC2 (Flyers Airpark)
Photo taken 05-Mar-2006
Photo taken from 1000 ft

Do you have a better or more recent aerial photo of Flyers Airpark that you would like to share? If so, please send us your photo.

 
Sectional chart

 
Airport distance calculator
Flying to Flyers Airpark? Find the distance to fly.

From to 9NC2

Sunrise and sunset
Times for 08-May-2021
 Local
(UTC-4)
 Zulu
(UTC)
Morning civil twilight05:5009:50
Sunrise06:1810:18
Sunset20:0500:05
Evening civil twilight20:3300:33

Current date and time
Zulu (UTC)  08-May-2021 20:14:01
Local (UTC-4)  08-May-2021 16:14:01
 
METAR
KFBG 
8nm SW 
081956Z AUTO 29017G24KT 10SM FEW095 25/03 A2995 RMK AO2 SLP144 T02480034 $
KHRJ 
10nm N 
081955Z AUTO 26005KT 10SM SCT090 23/05 A2997 RMK AO2 T02310048
KPOB 
11nm W 
081956Z AUTO 30014KT 10SM SCT090 25/04 A2995 RMK AO2 SLP145 T02500036 $
KFAY 
15nm S 
081953Z 26015G22KT 10SM SCT090 26/03 A2995 RMK AO2 PK WND 27028/1857 SLP138 T02560033
TAF
KFBG 
8nm SW 
081700Z 0817/0923 28010G25KT 9999 SCT075 510003 QNH2997INS BECMG 0822/0823 28009KT 9999 FEW070 QNH2999INS BECMG 0916/0917 20010G15KT 9999 SKC 510003 QNH3010INS BECMG 0917/0918 21020G25KT 9999 FEW170 510003 QNH2997INS BECMG 0922/0923 20012KT 9999 FEW170 510003 QNH2996INS TX25/0917Z TN10/0911Z
KPOB 
11nm W 
081700Z 0817/0923 30015G25KT 9999 BKN080 QNH2995INS BECMG 0823/0824 32008KT 9999 SCT080 QNH2995INS BECMG 0908/0909 06005KT 9999 SCT050 BKN100 QNH3005INS BECMG 0913/0914 16012G18KT 9999 SCT060 BKN120 QNH3000INS BECMG 0916/0917 20015G25KT 9999 BKN080 BKN120 QNH2995INS TX25/0820Z TN08/0910Z
KFAY 
15nm S 
081720Z 0818/0918 27011G20KT P6SM BKN070 FM090000 VRB05KT P6SM FEW070 SCT180 TEMPO 0908/0912 BKN070 FM091400 18010G16KT P6SM SCT250
NOTAMs
Click for the latest NOTAMs
NOTAMs are issued by the DoD/FAA and will open in a separate window not controlled by AirNav.

 

 
 

Would you like to see your business listed on this page?

 If your business provides an interesting product or service to pilots, flight crews, aircraft, or users of the Flyers Airpark, you should consider listing it here.  To start the listing process, click on the button below
 
Add a business
 

Other Pages about Flyers Airpark

Update a link
 
Copyright © AirNav, LLC. All rights reserved. Privacy Policy  Contact